Regional Weather Roundup
Issued by NWS Sterling, VA

Home | Current Version | Previous Version | Text Only | Print | Product List | Glossary Off
Versions: 1 2 3 4 5 6 7 8 9 10 11 12 13 14 15 16 17 18 19 20 21 22 23 24 25 26 27 28 29 30 31 32 33 34 35 36 37 38 39 40 41 42 43 44 45 46 47 48 49 50

000
ASUS41 KLWX 220310
RWRLWX

REGIONAL WEATHER ROUNDUP
NATIONAL WEATHER SERVICE BALTIMORE MD/WASHINGTON DC
1100 PM EDT THU AUG 21 2014

Note: "FAIR" indicates few or no clouds below 12,000 feet
with no significant weather and/or obstructions to visibility.
 TC=TEMPERATURE CELSIUS

 * =Non NWS site. Station does not report precipitation (e.g. rain,
    snow, etc.), thunder, or fog.

DCZ001-MDZ009-015-VAZ040>042-051-053>054-220400-
WASHINGTON METRO
  /KDAA//-FT BELVOIR

CITY           SKY/WX    TMP DP  RH WIND       PRES   REMARKS
WASHINGTON NAT CLOUDY    78  71  79 SW3       30.00R
DULLES         CLOUDY    71  70  96 CALM      30.00F
ANDREWS AFB    CLOUDY    74  73  96 S2        29.99F
QUANTICO       CLOUDY    78  73  84 CALM      30.00S
COLLEGE PARK*  CLOUDY    75  73  94 CALM      29.99S
LEESBURG*      CLOUDY    72  72 100 W3        30.02F
MANASSAS*      CLOUDY    75  75 100 CALM      30.00S
GAITHERSBURG*  MOCLDY    72  70  94 CALM      30.05S

$$

MDZ006>007-011-014-220400-
BALTIMORE METRO

CITY           SKY/WX    TMP DP  RH WIND       PRES   REMARKS
BWI AIRPORT    CLOUDY    77  68  73 CALM      29.98F
MD SCIENCE CTR   N/A     79  70  74 MISG      29.99S
MARTIN STATE   CLOUDY    73  73 100 CALM      30.00S FOG
ANNAPOLIS      CLOUDY    79  71  76 CALM      29.98R
FORT MEADE*    CLOUDY    72  68  88 CALM      30.01S

$$

MDZ012-015-019>023-220400-
MARYLAND EASTERN SHORE

CITY           SKY/WX    TMP DP  RH WIND       PRES   REMARKS
OCEAN CITY     CLOUDY    77  73  87 S5        30.01F
SALISBURY      CLOUDY    77  72  84 CALM      30.00F
BAY BRIDGE AP*   N/A     79  72  78 CALM      29.99S
CAMBRIDGE*     CLOUDY    77  72  83 SE3       29.99S
EASTON*        CLOUDY    78  78 100 CALM      30.03

$$

MDZ017>025-220400-
SOUTHERN MARYLAND

CITY           SKY/WX    TMP DP  RH WIND       PRES   REMARKS
PATUXENT RIVER LGT RAIN  76  71  85 SW6       29.99S
ST INIGOES     CLOUDY    77  70  79 SE3       29.99S
LEONARDTOWN*   CLOUDY    75  70  83 CALM      30.01S

$$

MDZ003>005-220400-
NORTH CENTRAL MARYLAND

CITY           SKY/WX    TMP DP  RH WIND       PRES   REMARKS
FREDERICK*     MOCLDY   N/A N/A N/A CALM      30.03S
HAGERSTOWN APT CLEAR     68  66  93 NW3       30.02S
WESTMINSTER*   MOCLDY    72  70  94 SW3       30.02S

$$

MDZ501>502-220400-
WESTERN MARYLAND

CITY           SKY/WX    TMP DP  RH WIND       PRES   REMARKS
OAKLAND*       CLOUDY    63 N/A N/A W6        30.15R HAZE
CUMBERLAND*    CLEAR     70  64  83 CALM      30.08S

$$

VAZ025>031-220400-
SHENANDOAH VALLEY

CITY           SKY/WX    TMP DP  RH WIND       PRES   REMARKS
WINCHESTER*    CLOUDY    73  64  73 SW3       30.04R
STAUNTON*      MOCLDY    72  67  84 CALM      30.08F

$$

WVZ021-048>050-054>055-220400-
EASTERN WEST VIRGINIA PANHANDLE

CITY           SKY/WX    TMP DP  RH WIND       PRES   REMARKS
MARTINSBURG    PTCLDY    73  64  73 W5        30.03R
PETERSBURG*    NOT AVBL

$$

VAZ036>039-050-220400-
CENTRAL FOOTHILLS

CITY           SKY/WX    TMP DP  RH WIND       PRES   REMARKS
CHARLOTTESVILL LGT RAIN  75  70  84 SW5       30.02F
ORANGE*        CLOUDY    73  70  88 CALM      30.03S

$$

VAZ055>057-220400-
NORTH AND CENTRAL PIEDMONT

CITY           SKY/WX    TMP DP  RH WIND       PRES   REMARKS
FREDERICKSBRG* CLOUDY    78  77  96 W3        29.98F
STAFFORD*      CLOUDY    74  74 100 CALM      30.04S FOG

$$

NCZ024-NYZ072-PAZ021-071-VAZ022-071-220400-
OTHER REGIONAL OBSERVATIONS

CITY           SKY/WX    TMP DP  RH WIND       PRES   REMARKS
NEW YORK CITY  LGT RAIN  72  63  73 CALM      30.05F
PHILADELPHIA   MOCLDY    74  67  78 S5        30.01S
PITTSBURGH     MOCLDY    70  67  90 SW6       30.05R
ROANOKE        MOCLDY    73  67  81 W9        30.10F
RICHMOND       LGT RAIN  83  72  69 SW5       30.01S
RALEIGH        CLOUDY    76  72  87 CALM      30.04F

$$

ANZ530>537-220400-
MARINE OBSERVATIONS

STATION/POSITION TIME  TEMP    WIND        PRES
                       AIR SEA DIR/SP/G
                 (UTC) (F)     (DEG/KT/KT) (MB)
THOMAS PT LIGHT  0300   79 79  220/  7/  8 1015.8R
BALT KEY BRIDGE  0300   76      40/  5/  6 1015.3S
COVE POINT       0300   78     240/  8/  9 1015.4R
LEWISETTA        0300   77 80  200/  7/  8 1015.3F
SOLOMONS ISLAND  0300      81                N/A
PINEY POINT      0300          190/  8/  9   N/A

$$



USA.gov is the U.S. government's official web portal to all federal, state and local government web resources and services.